C/2022 W3 ( Leonard )

Japanese version
Home page
Updated on October 12, 2023

---------------------------------------------------------------------

* Profile

Discovery Date November 26, 2022
Magnitude 19.7 mag
Discoverer Gregory J. Leonard (Mount Lemmon Survey)

* Pictures

* Orbital Elements

Epoch 2023 Sept. 13.0 TT = JDT 2460200.5
T 2023 June 22.77828 TT                                 Rudenko
q   1.3977331            (2000.0)            P               Q
z  +0.0035480      Peri.  116.52391     +0.45558574     +0.52435207
 +/-0.0000009      Node   132.26917     -0.51974250     -0.49939008
e   0.9950408      Incl.  103.55781     +0.72270974     -0.68968432
>From 899 observations 2022 Nov. 13-2023 Sept. 7, mean residual 0".8.

* Finding Charts

* Magnitudes Graph

        m1 = 12.0 + 5 log d + 10.0 log r

---------------------------------------------------------------------

The orbital elements are published on M.P.E.C. 2023-S260.
The charts are made with StellaNavigator Ver.10 (AstroArts).
The magnitudes graphs are made with Comet for Windows.

---------------------------------------------------------------------

Copyright(C) Seiichi Yoshida (comet@aerith.net). All rights reserved.